Probability
13 13 13 10 10 13 16 13 13 13 13 10 10 13 6 6 13 10 10 23 29 35 42 39 35 32 35 35 32 35 32 29 26 32 32 32 32 26 26 26 32 32 26
13 13 16 13 10 10 10 6 13 10 6 10 10 10 10 10 13 10 10 16 29 39 39 42 39 45 39 39 39 35 35 39 39 29 29 32 29 29 29 29 32 23 26
13 16 13 13 13 10 10 10 6 10 6 10 6 6 6 10 6 6 10 16 26 32 35 42 39 39 39 29 39 39 42 39 39 32 29 29 35 32 23 26 26 26 23
16 16 13 13 13 10 6 10 10 3 3 3 3 10 6 10 6 3 3 10 10 13 19 35 35 39 35 32 29 26 35 32 32 29 29 19 26 23 23 23 26 23 23
13 13 13 13 13 10 6 6 10 3 3 6 3 6 6 6 3 3 6 6 3 10 16 16 26 35 35 29 32 29 29 26 32 32 35 35 29 23 16 19 23 23 23
10 6 6 13 10 6 6 3 6 0 0 0 3 3 6 6 6 10 13 10 10 6 10 13 13 16 29 26 26 32 26 26 23 29 29 26 26 23 26 26 23 16 19
10 6 10 6 10 10 6 6 3 0 0 0 3 6 6 6 6 3 6 10 10 6 6 10 16 19 19 19 23 23 26 23 26 29 26 23 26 23 26 26 23 19 19
10 10 6 6 10 10 10 10 3 3 3 3 3 3 3 3 3 3 3 3 3 10 10 6 6 16 16 16 13 13 16 16 23 23 23 23 26 19 23 26 19 13 13
13 10 10 10 6 6 3 6 6 3 3 3 3 3 3 3 3 3 3 3 3 3 3 3 3 0 6 10 10 6 10 13 16 19 19 19 16 19 23 13 13 13 13
13 13 13 13 10 6 3 3 3 3 3 3 3 3 3 3 3 3 3 3 3 3 3 0 0 0 0 3 3 3 3 3 10 10 23 16 13 16 19 16 13 13 13
13 13 13 13 10 6 6 3 6 6 3 3 3 3 3 3 3 3 3 3 3 3 3 3 0 3 3 3 3 3 3 3 6 3 3 10 13 13 13 19 13 10 10
13 13 13 13 10 6 6 3 3 3 6 3 3 3 3 3 3 3 3 3 0 0 0 0 0 3 3 3 3 0 3 3 0 0 3 3 3 10 13 16 16 10 10
13 13 13 10 10 6 6 6 3 3 3 3 6 6 3 3 3 3 3 0 0 0 0 0 0 3 3 3 3 0 0 0 0 0 0 0 0 3 3 6 10 13 10
13 10 10 10 10 13 6 6 3 0 0 0 0 3 3 3 0 0 0 0 0 0 0 0 0 0 3 3 3 0 3 0 0 0 0 0 0 0 0 3 3 3 0
13 10 13 10 10 10 13 6 6 0 0 0 0 3 3 3 3 0 0 0 3 3 3 3 0 3 3 3 3 3 3 0 0 0 0 0 0 0 0 0 0 3 0
10 6 10 13 13 10 6 10 10 6 6 3 3 3 3 3 6 3 3 0 0 3 10 0 0 0 3 3 3 3 3 3 0 0 0 0 0 0 0 0 0 0 0
10 10 10 6 10 13 10 10 10 6 6 6 6 6 6 3 6 3 6 6 3 3 3 3 3 3 3 3 3 3 3 3 3 0 0 0 0 0 0 0 0 0 0
10 13 10 6 6 10 10 10 10 10 6 6 6 6 10 10 10 6 6 6 6 3 3 3 3 3 3 3 3 3 3 3 3 3 0 0 0 0 0 0 0 0 0
6 6 6 10 10 10 10 10 10 10 10 10 6 10 10 10 10 6 6 6 6 6 3 3 3 3 3 3 3 3 3 3 3 3 0 0 0 0 0 0 0 0 0
13 10 10 10 6 10 10 10 10 10 10 13 10 10 10 6 6 6 6 6 6 3 3 3 3 3 3 3 6 3 3 3 3 3 3 3 0 0 0 0 0 0 0
13 16 10 10 10 6 6 6 13 13 13 13 13 13 6 3 3 3 3 3 6 3 3 3 3 3 3 6 6 6 3 3 3 3 3 3 3 3 3 0 0 0 0
19 16 16 13 10 10 6 6 6 10 13 13 13 10 3 3 3 0 0 3 3 3 3 3 3 3 3 3 6 6 3 3 3 3 3 3 6 6 6 3 3 0 0
19 16 16 13 13 6 3 3 3 10 13 10 13 13 10 6 3 3 3 0 0 0 3 3 3 3 3 6 6 6 6 3 3 3 3 3 6 6 6 3 0 0 0
16 16 16 13 13 13 3 3 0 3 6 10 6 10 10 6 6 6 6 3 3 3 3 3 3 3 3 6 6 6 6 6 3 3 3 3 6 6 0 0 0 0 0
10 10 10 13 13 13 6 3 0 3 3 3 3 3 6 6 6 3 3 6 6 3 3 0 0 3 0 0 3 3 3 3 3 3 3 3 3 0 0 0 0 0 0
10 10 10 10 10 13 10 3 0 3 3 3 3 3 0 0 0 0 3 6 6 3 3 3 0 0 0 0 0 0 3 3 3 3 3 3 3 0 0 0 0 0 0
Height
5862 5861 5860 5859 5858 5858 5858 5857 5857 5857 5856 5856 5855 5855 5855 5855 5855 5856 5857 5858 5858 5859 5859 5859 5860 5860 5860 5860 5861 5861 5862 5863 5863 5864 5864 5865 5865 5865 5866 5866 5866 5867 5867
5860 5860 5859 5858 5857 5857 5856 5856 5856 5856 5855 5855 5854 5854 5854 5854 5854 5854 5855 5856 5857 5857 5857 5858 5858 5858 5858 5859 5859 5860 5861 5861 5862 5862 5862 5863 5863 5864 5864 5864 5864 5865 5865
5859 5858 5858 5857 5856 5856 5855 5855 5855 5855 5854 5854 5853 5853 5853 5853 5853 5853 5854 5855 5855 5856 5856 5857 5857 5857 5857 5857 5858 5858 5859 5859 5860 5860 5860 5861 5861 5861 5862 5862 5863 5863 5863
5858 5857 5856 5856 5855 5855 5854 5854 5854 5853 5853 5853 5852 5852 5851 5851 5852 5852 5852 5853 5854 5854 5855 5855 5855 5855 5855 5855 5856 5857 5857 5857 5858 5858 5859 5859 5859 5859 5860 5860 5860 5861 5861
5856 5856 5855 5854 5854 5853 5853 5853 5852 5852 5852 5851 5851 5850 5850 5850 5850 5850 5851 5851 5852 5852 5853 5853 5853 5854 5854 5853 5854 5854 5855 5855 5856 5857 5857 5857 5857 5857 5858 5858 5858 5858 5859
5855 5854 5854 5853 5852 5852 5852 5851 5851 5851 5850 5850 5850 5850 5849 5849 5849 5849 5849 5850 5850 5851 5851 5851 5852 5852 5852 5851 5852 5852 5852 5853 5854 5854 5855 5855 5855 5855 5855 5855 5856 5856 5856
5854 5853 5852 5851 5851 5851 5850 5850 5850 5849 5849 5849 5849 5849 5849 5848 5848 5848 5848 5848 5849 5849 5849 5850 5850 5850 5850 5850 5850 5850 5851 5851 5852 5852 5853 5853 5853 5853 5853 5853 5853 5853 5853
5852 5851 5850 5850 5849 5849 5849 5848 5848 5848 5848 5847 5847 5847 5848 5848 5847 5847 5847 5847 5847 5847 5847 5848 5848 5848 5848 5848 5848 5849 5849 5849 5850 5850 5850 5850 5850 5850 5851 5851 5851 5851 5851
5850 5849 5849 5848 5848 5848 5847 5847 5846 5846 5846 5846 5846 5846 5846 5846 5846 5846 5846 5845 5845 5845 5846 5846 5846 5846 5846 5846 5846 5847 5847 5847 5847 5847 5847 5847 5847 5848 5848 5848 5848 5848 5848
5848 5847 5846 5846 5846 5846 5845 5845 5844 5844 5844 5844 5844 5844 5844 5845 5845 5845 5844 5844 5843 5843 5843 5843 5843 5843 5843 5844 5844 5844 5844 5845 5845 5845 5845 5845 5845 5845 5845 5845 5845 5845 5845
5846 5845 5844 5844 5844 5843 5843 5843 5842 5842 5842 5842 5842 5842 5842 5842 5843 5843 5843 5842 5842 5841 5841 5841 5841 5841 5841 5841 5841 5841 5841 5842 5842 5842 5842 5842 5842 5842 5841 5842 5842 5842 5842
5843 5843 5842 5842 5841 5841 5841 5841 5840 5840 5840 5840 5840 5840 5840 5840 5840 5840 5840 5840 5840 5839 5839 5839 5839 5838 5838 5838 5838 5839 5839 5839 5839 5839 5840 5840 5839 5839 5838 5839 5839 5839 5838
5841 5840 5840 5839 5839 5839 5839 5838 5838 5838 5837 5838 5838 5838 5838 5838 5838 5838 5838 5838 5838 5837 5837 5836 5836 5835 5835 5836 5836 5836 5836 5836 5837 5837 5837 5837 5837 5836 5836 5836 5835 5835 5835
5838 5837 5837 5837 5837 5836 5836 5836 5836 5835 5835 5835 5835 5835 5835 5835 5835 5835 5835 5835 5835 5835 5834 5834 5833 5832 5832 5832 5832 5833 5833 5833 5833 5833 5833 5833 5833 5833 5833 5832 5832 5832 5831
5835 5834 5834 5834 5834 5834 5834 5833 5833 5832 5832 5832 5832 5832 5832 5832 5832 5832 5832 5832 5832 5832 5831 5831 5830 5830 5829 5829 5829 5829 5829 5829 5830 5830 5830 5830 5829 5829 5829 5829 5828 5828 5827
5831 5831 5830 5831 5830 5830 5830 5830 5830 5829 5829 5829 5829 5829 5829 5829 5829 5829 5829 5829 5828 5828 5828 5827 5827 5826 5826 5825 5825 5825 5825 5825 5825 5826 5826 5825 5825 5825 5825 5824 5824 5823 5823
5828 5827 5827 5826 5826 5827 5827 5826 5826 5826 5826 5826 5825 5825 5825 5825 5825 5825 5825 5825 5825 5825 5824 5824 5823 5822 5822 5822 5821 5821 5821 5821 5821 5821 5821 5821 5820 5820 5820 5820 5819 5818 5818
5823 5823 5823 5822 5822 5823 5822 5822 5822 5822 5822 5822 5821 5821 5821 5821 5821 5821 5821 5821 5821 5820 5820 5820 5819 5818 5818 5818 5817 5817 5816 5816 5816 5816 5816 5815 5815 5815 5815 5814 5814 5813 5812
5819 5818 5818 5818 5818 5818 5818 5818 5818 5818 5817 5817 5817 5817 5817 5817 5817 5817 5817 5816 5816 5816 5816 5815 5815 5814 5813 5813 5812 5812 5811 5811 5811 5810 5810 5810 5809 5809 5809 5808 5807 5807 5806
5814 5813 5813 5813 5813 5813 5813 5813 5812 5812 5812 5812 5812 5812 5812 5812 5812 5812 5811 5811 5811 5811 5811 5810 5810 5809 5809 5808 5807 5807 5806 5805 5805 5804 5804 5803 5803 5802 5802 5801 5801 5800 5799
5809 5808 5808 5807 5807 5807 5807 5807 5807 5807 5807 5807 5807 5807 5807 5807 5806 5806 5806 5806 5805 5805 5805 5805 5805 5804 5803 5802 5802 5801 5801 5800 5799 5798 5797 5797 5796 5795 5794 5794 5793 5792 5791
5803 5802 5801 5801 5801 5801 5801 5801 5801 5801 5801 5801 5801 5801 5801 5801 5800 5800 5800 5800 5799 5799 5799 5799 5799 5798 5798 5797 5796 5795 5794 5794 5793 5792 5790 5789 5789 5788 5787 5786 5785 5784 5783
5798 5796 5795 5795 5795 5795 5795 5794 5795 5795 5795 5795 5795 5795 5795 5794 5794 5794 5793 5793 5793 5793 5793 5793 5792 5792 5791 5791 5790 5788 5787 5786 5785 5784 5783 5782 5781 5780 5779 5778 5777 5776 5775
5792 5791 5790 5789 5789 5789 5788 5788 5788 5788 5788 5788 5788 5788 5788 5788 5787 5787 5787 5786 5786 5786 5786 5786 5785 5785 5784 5784 5783 5782 5780 5779 5778 5777 5776 5775 5774 5772 5771 5769 5768 5767 5766
5785 5784 5784 5783 5782 5782 5782 5781 5781 5781 5781 5781 5781 5781 5781 5781 5781 5780 5780 5779 5779 5779 5778 5778 5778 5777 5777 5776 5775 5774 5773 5772 5770 5769 5768 5767 5766 5764 5763 5761 5760 5758 5757
5778 5777 5777 5776 5775 5775 5774 5774 5774 5774 5774 5774 5774 5774 5774 5774 5773 5773 5772 5772 5772 5771 5771 5770 5770 5769 5768 5768 5766 5765 5764 5763 5762 5761 5760 5758 5757 5756 5755 5753 5751 5749 5747
Wind_Speed
6 5 5 6 5 5 5 4 4 5 5 5 5 5 5 5 5 7 7 6 6 6 7 6 6 6 7 8 8 8 8 8 8 9 9 9 8 8 8 10 10 9 9
6 6 5 5 5 5 4 4 4 5 5 5 5 5 6 6 5 6 7 7 6 6 7 7 7 7 7 8 7 7 8 8 8 8 8 8 8 8 8 9 9 8 8
6 6 6 5 5 5 5 5 5 5 5 5 6 6 6 6 7 6 7 7 7 6 7 7 7 7 6 6 7 7 8 8 7 7 7 7 8 8 8 8 8 8 8
6 6 6 5 5 5 5 5 5 5 5 6 6 6 6 6 7 7 7 8 7 8 8 7 6 7 8 7 7 8 8 8 7 6 7 8 8 8 8 8 8 9 9
6 5 5 5 5 4 4 4 5 4 5 5 5 5 5 5 5 5 6 6 7 7 8 7 7 8 7 8 9 9 8 8 7 7 8 8 9 9 9 9 9 9 10
6 5 4 4 4 5 5 5 5 5 5 4 4 4 4 4 4 5 4 5 6 7 8 8 9 8 8 8 8 7 7 8 8 8 9 9 10 10 10 9 9 10 10
6 6 5 4 5 5 5 5 5 5 5 4 4 4 4 4 4 5 6 6 6 7 8 8 8 8 8 7 7 8 8 8 8 8 10 10 10 10 11 11 11 11 11
7 6 6 5 5 5 5 5 5 5 4 4 5 5 5 5 5 6 6 6 7 7 8 8 8 8 9 8 8 9 9 9 9 10 10 10 11 11 11 12 12 11 11
8 8 7 6 6 6 6 6 6 5 5 5 6 5 5 6 6 6 6 7 7 8 9 9 9 9 9 9 10 9 9 9 9 9 10 10 11 11 11 12 12 12 12
8 8 8 7 7 7 7 6 6 6 6 6 6 6 6 6 7 7 7 7 7 8 9 9 9 9 9 9 10 9 9 9 9 9 10 10 11 11 11 11 12 12 12
9 8 8 8 7 7 7 7 7 7 7 7 7 7 7 7 7 7 7 7 8 8 9 9 10 10 10 10 11 10 10 10 10 10 10 10 11 11 11 11 12 12 13
10 10 9 8 8 8 7 7 8 7 7 7 8 8 8 8 8 8 8 8 8 9 9 10 10 10 10 11 11 11 11 11 11 11 10 11 11 11 10 11 12 12 13
10 11 10 10 9 9 8 9 9 8 8 9 9 9 9 9 9 9 9 9 9 9 10 10 10 10 10 11 12 12 12 12 12 12 12 11 12 12 12 12 12 13 13
11 11 11 11 10 10 10 10 11 10 10 10 10 10 10 10 10 9 9 10 10 10 11 11 11 11 11 11 11 12 13 13 13 13 13 13 13 13 13 13 14 13 14
12 12 12 12 12 12 12 12 12 12 11 11 11 11 11 11 11 11 11 11 11 11 11 11 11 11 11 11 12 13 14 14 14 15 14 14 14 14 14 14 15 15 15
14 14 13 13 14 13 14 14 13 13 13 13 12 12 13 13 13 13 13 13 12 13 13 12 12 12 12 13 13 14 15 14 15 15 15 16 16 15 16 16 16 17 18
15 15 14 14 15 15 15 15 15 15 14 14 14 14 14 15 14 14 14 14 14 14 14 14 15 15 14 14 14 15 16 16 16 17 17 17 17 17 17 17 18 19 20
16 16 16 16 17 17 17 16 16 16 16 17 16 15 15 15 16 16 16 16 16 16 16 15 16 16 15 15 16 16 16 17 18 18 19 19 20 20 20 20 20 21 21
17 18 18 18 18 18 19 19 18 18 18 18 18 17 17 17 17 17 18 18 18 18 17 17 17 18 17 17 17 18 19 19 20 20 21 21 22 22 23 23 23 23 23
18 19 19 19 19 19 19 20 20 19 19 19 20 19 19 19 19 19 19 19 19 19 19 19 18 18 18 19 19 19 21 21 21 21 22 23 24 24 24 25 25 25 25
18 19 20 20 21 21 21 21 21 21 21 21 20 21 21 21 20 20 20 20 20 20 20 20 20 20 20 20 20 21 22 22 22 23 25 25 26 27 27 27 27 27 27
19 19 20 21 21 21 21 21 21 22 22 22 21 21 22 22 22 22 22 21 21 21 22 22 22 22 22 22 22 23 23 24 24 24 25 25 27 28 28 28 28 28 28
19 20 20 21 20 21 22 23 23 23 23 23 23 22 22 23 23 23 23 22 22 23 23 24 24 23 23 23 24 24 25 25 25 25 25 26 27 28 28 28 28 29 29
22 22 22 22 22 22 23 24 24 24 24 24 24 24 24 23 23 24 24 24 24 25 24 25 25 25 24 25 26 26 26 27 27 27 27 27 27 28 29 29 30 30 31
23 23 23 23 23 23 24 24 24 24 24 24 24 25 25 24 24 24 25 25 25 26 26 26 26 27 26 26 27 27 28 28 27 27 28 29 29 28 29 29 30 30 30
24 24 24 24 25 24 24 24 24 24 24 24 25 25 25 25 26 26 26 26 26 26 27 28 28 29 29 29 28 28 28 28 28 29 29 30 30 29 29 29 30 30 30
Wind_Direction
332 330 329 326 322 318 317 319 321 310 299 297 291 269 265 254 250 248 251 254 256 263 266 268 274 271 261 260 257 255 255 254 253 253 253 248 250 254 260 262 265 264 266
330 323 326 326 322 317 315 319 319 321 313 302 297 289 277 264 258 250 251 252 254 258 264 268 274 272 264 259 251 253 257 255 252 250 249 247 249 254 262 262 265 262 263
324 322 320 320 319 318 316 315 312 308 309 307 300 293 286 268 266 257 247 247 252 249 255 265 268 265 265 254 252 257 255 252 253 255 254 253 252 253 257 261 262 263 263
314 314 314 316 313 311 309 309 306 306 305 304 301 294 289 277 260 258 248 243 247 247 247 255 263 264 265 258 260 264 262 257 256 263 263 258 256 255 255 259 260 263 264
318 314 312 311 306 304 304 304 299 298 301 305 303 299 297 299 276 257 248 246 249 248 246 255 264 258 260 260 260 264 264 262 262 265 262 260 256 255 255 257 258 263 268
315 316 314 312 304 302 301 298 292 291 296 300 297 298 298 294 288 281 265 258 252 254 257 259 262 260 262 266 264 265 267 261 258 262 260 259 258 258 261 260 263 265 269
309 312 315 306 300 298 297 295 293 291 291 287 287 289 295 293 289 284 281 275 268 267 267 267 269 267 263 265 265 263 263 259 256 262 262 261 260 262 264 263 264 268 270
303 303 303 301 298 299 297 297 298 296 288 284 289 286 283 288 290 288 280 280 277 276 277 278 277 275 265 263 262 265 269 262 260 264 264 263 262 263 264 264 269 269 272
302 297 297 292 290 290 292 291 292 290 284 281 284 283 280 288 285 286 283 284 278 275 274 272 272 273 272 270 268 268 269 270 270 268 267 266 265 264 267 269 273 272 273
300 295 294 292 289 287 287 289 292 282 279 278 279 279 278 282 288 291 289 288 284 279 274 273 275 273 269 267 266 267 269 273 273 273 273 270 269 268 268 272 274 272 273
299 293 290 289 287 282 281 286 285 277 274 272 272 271 272 279 286 288 290 288 282 279 278 280 278 276 271 266 266 267 270 270 271 275 277 276 271 269 268 272 270 270 273
290 288 287 286 284 279 277 283 283 279 275 271 270 271 274 276 280 282 284 285 284 283 283 283 279 276 268 268 267 268 270 271 273 274 276 277 275 273 275 276 275 277 277
291 288 286 285 283 278 278 278 279 278 274 269 270 270 272 273 276 280 280 281 284 286 284 282 280 278 272 271 268 265 267 271 274 275 276 279 278 279 279 279 282 282 281
287 286 283 281 279 279 279 278 279 278 276 272 271 270 271 274 276 280 280 281 284 284 282 281 282 282 276 269 267 267 265 268 270 274 275 277 279 279 280 280 279 280 281
277 278 278 277 275 275 278 280 279 278 274 273 272 269 273 276 276 276 280 280 281 282 283 283 284 284 280 271 267 269 270 269 270 272 275 277 276 277 278 279 280 280 281
278 278 277 276 273 271 275 279 281 279 275 275 271 271 276 276 275 275 276 275 276 281 283 281 283 285 282 276 269 271 274 272 271 271 274 276 274 277 279 280 281 282 281
278 278 278 278 274 272 273 277 279 277 277 278 279 275 274 275 275 274 274 273 274 276 278 280 280 283 281 277 275 276 274 275 274 272 271 274 274 275 278 280 283 283 282
276 275 276 275 274 274 275 276 277 277 276 276 277 276 272 272 274 276 274 274 274 274 274 274 279 281 279 275 275 277 276 277 275 275 273 273 274 276 278 280 283 283 283
279 277 276 275 273 273 274 275 275 276 275 274 275 275 273 273 273 275 274 273 273 273 273 272 275 277 277 275 274 276 278 278 277 277 276 275 275 278 280 282 284 285 284
280 278 275 274 272 272 272 272 274 274 275 274 274 275 275 272 272 273 273 273 274 273 274 274 273 274 276 276 275 277 279 279 277 278 278 279 278 278 279 281 282 284 285
279 279 276 275 271 269 270 271 271 272 273 274 274 274 274 273 273 273 272 272 272 272 273 274 274 275 276 277 276 278 280 281 279 278 279 279 278 278 278 280 283 284 284
280 280 278 274 270 269 269 270 271 271 271 272 272 273 273 272 273 274 274 272 271 271 272 273 274 276 277 279 280 282 283 284 284 282 281 280 280 279 280 282 283 283 283
283 284 280 277 273 271 270 271 271 272 271 271 271 271 273 274 274 272 272 272 272 272 272 275 276 276 277 279 280 281 283 284 284 283 283 283 282 282 282 282 283 284 283
281 281 280 277 273 273 272 271 271 271 270 271 271 271 273 273 274 272 271 272 272 273 274 277 278 277 276 278 279 280 281 283 282 282 282 282 283 284 284 283 282 283 283
279 280 278 275 274 274 273 271 270 269 271 272 271 272 273 273 273 273 272 272 273 274 273 275 276 277 276 276 277 279 280 280 281 283 283 284 284 284 285 284 283 284 284
277 278 277 277 275 274 272 271 270 269 272 274 272 271 272 273 275 276 274 273 273 275 274 274 275 276 277 276 276 277 279 279 281 283 284 284 284 284 286 285 285 284 285